Station HCGN7 - 8654467 - USCG Station Hatteras, NC Image indicating link to RSS feed of recent meteorological observations for station HCGN7


Conditions at HCGN7 as of
(1:18 am EDT)
0518 GMT on 07/19/2024:
     

Click on the graph icon in the table below to see a time series plot of the last five days of that observation.

5-day plot - Wind Direction Wind Direction (WDIR):WSW ( 250 deg true )
5-day plot - Wind Speed Wind Speed (WSPD): 8.0 kts
5-day plot - Wind Gust Wind Gust (GST): 11.1 kts
5-day plot - Atmospheric Pressure Atmospheric Pressure (PRES):30.01 in
5-day plot - Air Temperature Air Temperature (ATMP): 75.4 °F
5-day plot - Water Temperature Water Temperature (WTMP): 81.0 °F
5-day plot - Wind Speed at 10 Meters Wind Speed at 10 meters (WSPD10M): 9.7 kts
5-day plot - Wind Speed at 20 Meters Wind Speed at 20 meters (WSPD20M): 9.7 kts
5-day plot -  Wind Speed, Wind Gust and Atmospheric Pressure Combined plot of Wind Speed, Gust, and Air Pressure
NOS Water Level Observation Network Water Level
Previous observations
TIME
(EDT)
5-day plot - Wind Direction
WDIR
 
5-day plot - Wind Speed
WSPD
kts
5-day plot - Wind Gust
GST
kts
5-day plot - Wave Height
WVHT
ft
5-day plot - Dominant Wave Period
DPD
sec
5-day plot - Average Wave Period
APD
sec
5-day plot - Mean Wave Direction
MWD
 
5-day plot - Atmospheric Pressure
PRES
in
5-day plot - Pressure Tendency
PTDY
in
5-day plot - Air Temperature
ATMP
°F
5-day plot - Water Temperature
WTMP
°F
5-day plot - Dew Point
DEWP
°F
5-day plot - Salinity
SAL
psu
5-day plot - Visibility
VIS
nmi
5-day plot - Tide (above MLLW)
TIDE
ft
2024-07-19 01:12 amWSW 8.9 15.9----30.01- 75.6 81.0----
2024-07-19 01:06 am W 12.0 17.1----30.01- 75.6 81.0----
2024-07-19 01:00 am W 13.0 19.0----30.02-0.02 75.6 81.0----
2024-07-19 12:54 am W 15.0 19.0----30.02- 75.2 81.0----
2024-07-19 12:48 am W 15.0 20.0----30.02- 75.6 81.0----
2024-07-19 12:42 am W 18.1 21.0----30.02- 75.7 81.0----
2024-07-19 12:36 am W 17.1 21.0----30.03- 75.9 81.0----
2024-07-19 12:30 am W 12.0 15.9----30.03- 76.3 81.0----
2024-07-19 12:24 amWSW 12.0 14.0----30.03- 76.3 81.1----
2024-07-19 12:18 amWSW 11.1 15.0----30.03- 76.1 81.1----
2024-07-19 12:12 am W 11.1 13.0----30.03- 75.6 81.1----
2024-07-19 12:06 am W 12.0 15.9----30.03- 76.5 81.1----
2024-07-19 12:00 am W 11.1 15.0----30.03+0.02 76.1 81.1----
2024-07-18 11:54 pm W 14.0 15.0----30.03- 75.7 81.1----
2024-07-18 11:48 pm W 14.0 17.1----30.03- 75.6 81.1----
2024-07-18 11:42 pm W 12.0 13.0----30.03- 76.1 81.1----
2024-07-18 11:36 pm W 11.1 13.0----30.03- 76.1 81.1----
2024-07-18 11:30 pm W 9.9 13.0----30.03- 76.5 81.1----
2024-07-18 11:24 pm W 11.1 13.0----30.03- 75.9 81.3----
2024-07-18 11:18 pm W 9.9 13.0----30.04- 75.9 81.3----
2024-07-18 11:12 pm W 11.1 13.0----30.04- 75.7 81.3----
2024-07-18 11:06 pm W 8.9 11.1----30.04- 76.1 81.3----
2024-07-18 11:00 pm W 8.0 11.1----30.04+0.04 76.8 81.3----
2024-07-18 10:54 pm W 7.0 8.0----30.03- 76.8 81.3----
2024-07-18 10:48 pm W 8.0 9.9----30.03- 76.6 81.3----
2024-07-18 10:42 pm W 8.9 11.1----30.03- 75.9 81.3----
2024-07-18 10:36 pm W 8.0 12.0----30.04- 76.3 81.3----
2024-07-18 10:30 pm W 8.9 11.1----30.04- 76.3 81.3----
2024-07-18 10:24 pm W 9.9 11.1----30.04- 76.3 81.3----
2024-07-18 10:18 pm W 6.0 8.0----30.04- 75.9 81.3----
2024-07-18 10:12 pmWNW 6.0 11.1----30.04- 75.7 81.3----
2024-07-18 10:06 pmWNW 12.0 15.0----30.04- 75.9 81.3----
2024-07-18 10:00 pmWNW 9.9 14.0----30.04+0.07 76.5 81.3----
2024-07-18 09:54 pmWNW 13.0 15.0----30.03- 76.8 81.3----
2024-07-18 09:48 pm NW 15.0 17.1----30.03- 77.0 81.3----
2024-07-18 09:42 pmWNW 9.9 14.0----30.03- 77.4 81.3----
2024-07-18 09:36 pmWNW 13.0 17.1----30.03- 77.7 81.3----
2024-07-18 09:30 pm W 15.0 18.1----30.03- 78.8 81.3----
2024-07-18 09:24 pmWSW 11.1 15.0----30.02- 79.2 81.3----
2024-07-18 09:18 pmSSW 11.1 14.0----30.01- 79.3 81.3----
2024-07-18 09:12 pm SW 11.1 15.0----30.01- 79.3 81.3----
2024-07-18 09:06 pmSSW 9.9 15.0----30.01- 79.2 81.3----
2024-07-18 09:00 pmSSW 8.9 13.0----30.01+0.07 79.2 81.3----
2024-07-18 08:54 pmSSW 8.0 12.0----30.01- 79.2 81.3----
2024-07-18 08:48 pmSSW 8.9 12.0----30.01- 79.2 81.3----
2024-07-18 08:42 pmSSW 9.9 12.0----30.01- 79.2 81.3----
2024-07-18 08:36 pmSSW 8.9 12.0----30.01- 79.2 81.3----
2024-07-18 08:30 pm SW 8.9 11.1----30.01- 79.2 81.3----
2024-07-18 08:24 pm SW 8.9 13.0----30.01- 79.3 81.3----
2024-07-18 08:18 pm SW 8.0 12.0----30.01- 79.3 81.3----
2024-07-18 08:12 pm SW 8.9 14.0----30.01- 79.3 81.3----
2024-07-18 08:06 pm SW 11.1 14.0----30.01- 79.5 81.3----
2024-07-18 08:00 pm SW 11.1 14.0----30.00+0.04 79.5 81.3----
2024-07-18 07:54 pm SW 9.9 14.0----30.00- 79.5 81.3----
2024-07-18 07:48 pm SW 8.9 13.0----30.00- 79.3 81.3----
2024-07-18 07:42 pm SW 9.9 12.0----29.99- 79.3 81.3----
2024-07-18 07:36 pm SW 8.9 13.0----29.99- 79.5 81.3----
2024-07-18 07:30 pm SW 11.1 14.0----29.99- 79.5 81.3----
2024-07-18 07:24 pm SW 8.9 14.0----29.98- 79.7 81.3----
2024-07-18 07:00 pm SW 9.9 15.9----29.97+0.00 80.4 81.1----
2024-07-18 06:54 pm SW 11.1 15.9----29.97- 80.6 81.3----
2024-07-18 06:48 pm SW 12.0 18.1----29.96- 80.6 81.3----
2024-07-18 06:42 pm SW 12.0 17.1----29.96- 80.6 81.3----
2024-07-18 06:36 pm SW 12.0 18.1----29.95- 80.6 81.3----
2024-07-18 06:30 pm SW 12.0 18.1----29.94- 80.8 81.3----
2024-07-18 06:24 pm SW 11.1 15.9----29.95- 80.8 81.3----
2024-07-18 06:18 pm SW 12.0 15.9----29.94- 81.0 81.1----
2024-07-18 06:12 pm SW 12.0 15.0----29.94- 81.0 81.1----
2024-07-18 06:06 pm SW 12.0 15.9----29.94- 81.1 81.1----
2024-07-18 06:00 pm SW 11.1 15.9----29.94-0.06 81.3 81.1----
2024-07-18 05:54 pm SW 11.1 15.9----29.94- 80.8 81.1----
2024-07-18 05:48 pm SW 9.9 18.1----29.94- 80.8 81.1----
2024-07-18 05:42 pm SW 9.9 15.0----29.94- 81.0 81.1----
2024-07-18 05:36 pm SW 11.1 14.0----29.95- 80.4 81.1----
2024-07-18 05:30 pm SW 11.1 14.0----29.96- 80.4 81.1----
2024-07-18 05:24 pm SW 11.1 14.0----29.96- 80.4 81.1----
2024-07-18 05:18 pm SW 12.0 15.0----29.96- 80.4 81.1----
2024-07-18 05:12 pm SW 8.9 15.9----29.96- 80.6 81.1----
2024-07-18 05:06 pm SW 11.1 15.9----29.96- 80.4 81.1----
2024-07-18 05:00 pm SW 9.9 15.0----29.96-0.05 80.6 81.1----
2024-07-18 04:54 pm SW 11.1 14.0----29.96- 80.4 81.1----
2024-07-18 04:48 pm SW 9.9 15.0----29.96- 80.6 81.1----
2024-07-18 04:42 pm SW 9.9 14.0----29.96- 80.8 81.1----
2024-07-18 04:36 pm SW 9.9 15.0----29.97- 81.0 81.1----
2024-07-18 04:30 pm SW 9.9 14.0----29.96- 80.8 81.1----
2024-07-18 04:24 pm SW 9.9 17.1----29.96- 81.5 81.1----
2024-07-18 04:18 pm SW 11.1 15.9----29.97- 81.5 81.0----
2024-07-18 04:12 pm SW 12.0 15.9----29.97- 81.3 81.0----
2024-07-18 04:06 pm SW 11.1 15.9----29.97- 81.3 81.0----
2024-07-18 04:00 pm SW 12.0 18.1----29.97-0.04 81.3 81.0----
2024-07-18 03:54 pm SW 12.0 19.0----29.97- 81.1 81.0----
2024-07-18 03:48 pm SW 13.0 18.1----29.97- 81.0 81.0----
2024-07-18 03:42 pm SW 12.0 20.0----29.97- 81.3 81.0----
2024-07-18 03:36 pm SW 13.0 18.1----29.98- 81.7 81.0----
2024-07-18 03:30 pm SW 13.0 20.0----29.98- 81.7 81.0----
2024-07-18 03:24 pm SW 12.0 18.1----29.98- 82.0 81.0----
2024-07-18 03:18 pm SW 15.0 22.0----29.99- 82.2 80.8----
2024-07-18 03:12 pm SW 13.0 20.0----29.99- 82.2 80.8----
2024-07-18 03:06 pmSSW 14.0 19.0----30.00- 81.9 80.8----
2024-07-18 03:00 pmSSW 15.9 21.0----30.00-0.01 81.5 80.8----
2024-07-18 02:54 pmSSW 14.0 20.0----30.01- 81.5 80.8----
2024-07-18 02:48 pmSSW 15.9 22.0----30.01- 81.5 80.8----
2024-07-18 02:42 pmSSW 15.0 21.0----30.01- 81.3 80.8----
2024-07-18 02:36 pmSSW 15.0 19.0----30.01- 81.3 80.6----
2024-07-18 02:30 pmSSW 11.1 15.9----30.01- 81.5 80.6----
2024-07-18 02:24 pmSSW 9.9 15.9----30.01- 81.7 80.6----
2024-07-18 02:18 pmSSW 9.9 18.1----30.01- 81.5 80.6----
2024-07-18 02:12 pmSSW 12.0 20.0----30.01- 81.3 80.6----
2024-07-18 02:06 pmSSW 11.1 19.0----30.01- 81.0 80.4----
2024-07-18 02:00 pmSSW 11.1 18.1----30.01+0.00 81.0 80.6----
2024-07-18 01:54 pmSSW 8.9 15.9----30.02- 81.5 80.6----
2024-07-18 01:48 pmSSW 9.9 17.1----30.02-- 80.6----
2024-07-18 01:42 pmSSW 11.1 19.0----30.01-- 80.4----
2024-07-18 01:36 pmSSW 9.9 17.1----30.01-- 80.4----
2024-07-18 01:30 pmSSW 12.0 19.0----30.01- 82.2 80.4----
2024-07-18 01:24 pmSSW 9.9 17.1----30.01- 81.9 80.4----
2024-07-18 01:18 pmSSW 11.1 19.0----30.01- 81.5 80.4----
2024-07-18 01:12 pmSSW 8.9 15.0----30.00- 82.2 80.2----
2024-07-18 01:06 pmSSW 8.9 15.9----30.00- 82.9 80.2----
2024-07-18 01:00 pmSSW 8.0 14.0----30.00+0.00 82.2 80.1----
2024-07-18 12:54 pmSSW 6.0 15.9----30.01- 82.8 80.2----
2024-07-18 12:48 pmSSW 12.0 19.0----30.00- 82.8 80.2----
2024-07-18 12:42 pm SW 11.1 19.0----30.00- 83.3 80.2----
2024-07-18 12:36 pm SW 11.1 18.1----30.00- 83.8 80.2----
2024-07-18 12:30 pm SW 13.0 18.1----30.01- 83.7 80.2----
2024-07-18 12:24 pm SW 12.0 19.0----30.01- 83.5 80.2----
2024-07-18 12:18 pm SW 14.0 18.1----30.01- 83.5 80.2----
2024-07-18 12:12 pm SW 13.0 19.0----30.01- 83.1 80.1----
2024-07-18 12:06 pm SW 14.0 18.1----30.01- 82.4 80.1----
2024-07-18 12:00 pm SW 12.0 17.1----30.01+0.00 82.6 80.1----
2024-07-18 11:54 am SW 11.1 17.1----30.01- 82.8 79.9----
2024-07-18 11:48 am SW 9.9 15.0----30.01- 82.9 79.9----
2024-07-18 11:42 am SW 12.0 15.9----30.01- 82.2 79.7----
2024-07-18 11:36 am SW 11.1 15.0----30.01- 82.0 79.7----
2024-07-18 11:30 am SW 11.1 14.0----30.02- 81.9 79.7----
2024-07-18 11:24 am SW 9.9 13.0----30.01- 81.3 79.5----
2024-07-18 11:18 am SW 11.1 14.0----30.02- 81.3 79.5----
2024-07-18 11:12 am SW 8.0 12.0----30.01- 81.9 79.5----
2024-07-18 11:06 am SW 8.9 14.0----30.01- 82.0 79.7----
2024-07-18 11:00 am SW 9.9 13.0----30.01+0.00 81.9 79.7----
2024-07-18 10:54 amSSW 8.9 14.0----30.01- 81.7 79.7----
2024-07-18 10:48 am SW 9.9 13.0----30.01- 81.1 79.7----
2024-07-18 10:42 am SW 9.9 13.0----30.01- 81.1 79.5----
2024-07-18 10:36 am SW 8.0 12.0----30.01- 81.0 79.7----
2024-07-18 10:30 am SW 7.0 11.1----30.01- 80.2 79.7----
2024-07-18 10:24 am SW 8.0 9.9----30.02- 80.1 79.7----
2024-07-18 10:18 am SW 8.0 11.1----30.02- 80.1 79.7----
2024-07-18 10:12 am SW 8.0 11.1----30.01- 80.1 79.7----
2024-07-18 10:06 am SW 8.0 12.0----30.01- 80.1 79.7----
2024-07-18 10:00 am SW 8.0 11.1----30.01+0.00 79.9 79.7----
2024-07-18 09:54 am SW 8.0 11.1----30.01- 79.9 79.5----
2024-07-18 09:48 am SW 8.0 11.1----30.01- 79.9 79.7----
2024-07-18 09:42 am SW 8.0 9.9----30.01- 79.7 79.7----
2024-07-18 09:36 am SW 7.0 11.1----30.01- 79.5 79.5----
2024-07-18 09:30 am SW 6.0 9.9----30.01- 79.3 79.5----
2024-07-18 09:24 amSSW 6.0 8.0----30.01- 79.2 79.5----
2024-07-18 09:18 amSSW 4.1 7.0----30.01- 78.8 79.5----
2024-07-18 09:12 amSSW 4.1 6.0----30.01- 78.6 79.5----
2024-07-18 09:06 am SW 5.1 7.0----30.01- 78.6 79.5----
2024-07-18 09:00 amSSW 5.1 7.0----30.01+0.01 78.6 79.7----
2024-07-18 08:54 amSSW 5.1 8.0----30.01- 78.6 79.5----
2024-07-18 08:48 amSSW 6.0 9.9----30.02- 78.6 79.5----
2024-07-18 08:42 amSSW 6.0 9.9----30.02- 78.6 79.7----
2024-07-18 08:36 amSSW 5.1 7.0----30.03- 78.6 79.7----
2024-07-18 08:30 amSSW 5.1 8.0----30.03- 78.6 79.7----
2024-07-18 08:24 amSSW 5.1 8.9----30.02- 78.6 79.7----
2024-07-18 08:18 amSSW 7.0 9.9----30.02- 78.6 79.7----
2024-07-18 08:12 am SW 7.0 9.9----30.02- 78.6 79.7----
2024-07-18 08:06 am SW 8.0 9.9----30.02- 78.4 79.7----
2024-07-18 08:00 am SW 7.0 9.9----30.02+0.04 78.4 79.7----
2024-07-18 07:54 amSSW 8.0 12.0----30.02- 78.3 79.7----
2024-07-18 07:48 am SW 8.0 11.1----30.02-- 79.7----
2024-07-18 07:42 am SW 7.0 9.9----30.02-- 79.7----
2024-07-18 07:36 amSSW 7.0 11.1----30.02-- 79.7----
2024-07-18 07:30 amSSW 7.0 11.1----30.02- 77.9 79.7----
2024-07-18 07:24 amSSW 8.0 9.9----30.01- 77.7 79.9----
2024-07-18 07:18 am SW 7.0 9.9----30.01- 77.5 79.9----
2024-07-18 07:12 am SW 7.0 9.9----30.01- 77.5 79.7----
2024-07-18 07:06 am SW 7.0 9.9----30.01- 77.4 79.9----
2024-07-18 07:00 am SW 8.0 11.1----30.01+0.04 77.4 80.1----
2024-07-18 06:54 am SW 8.0 11.1----30.00- 77.4 80.2----
2024-07-18 06:48 am SW 8.0 12.0----30.00- 77.4 80.2----
2024-07-18 06:42 am SW 7.0 11.1----30.00- 77.2 80.2----
2024-07-18 06:36 am SW 8.0 11.1----30.00- 77.2 80.2----
2024-07-18 06:30 am SW 8.0 12.0----30.00- 77.0 80.2----
2024-07-18 06:24 am SW 8.0 13.0----30.00- 77.0 80.2----
2024-07-18 06:18 am SW 8.0 12.0----30.00- 77.0 80.2----
2024-07-18 06:12 am SW 8.0 12.0----30.00- 77.0 80.2----
2024-07-18 06:06 am SW 8.9 14.0----30.00- 77.2 80.4----
2024-07-18 06:00 am SW 8.9 13.0----30.00+0.03 77.2 80.4----
2024-07-18 05:54 am SW 11.1 14.0----30.00- 77.2 80.4----
2024-07-18 05:48 am SW 8.9 15.0----30.00- 77.4 80.6----
2024-07-18 05:42 am SW 9.9 13.0----30.00- 77.4 80.6----
2024-07-18 05:36 amWSW 8.9 13.0----29.99- 77.2 80.8----
2024-07-18 05:30 am SW 9.9 13.0----29.99- 77.0 80.8----
2024-07-18 05:24 am SW 8.9 13.0----29.99- 77.0 80.8----
2024-07-18 05:18 am SW 9.9 15.0----29.99- 77.0 80.8----
2024-07-18 05:12 amWSW 11.1 15.0----29.99- 77.0 80.8----
2024-07-18 05:06 amWSW 11.1 15.0----29.98- 77.0 80.8----
2024-07-18 05:00 amWSW 9.9 15.0----29.98+0.00 77.0 80.8----
2024-07-18 04:54 amWSW 11.1 15.0----29.98- 77.0 80.8----
2024-07-18 04:48 am SW 11.1 15.0----29.98-- 80.8----
2024-07-18 04:42 amWSW 11.1 15.0----29.97-- 80.8----
2024-07-18 04:36 am SW 12.0 15.9----29.97-- 80.8----
2024-07-18 04:30 am SW 12.0 17.1----29.97- 77.0 80.8----
2024-07-18 04:24 am SW 11.1 17.1----29.97- 77.0 80.8----
2024-07-18 04:18 am SW 11.1 15.9----29.96- 77.2 80.8----
2024-07-18 04:12 am SW 12.0 17.1----29.96- 77.0 80.8----
2024-07-18 04:06 am SW 13.0 18.1----29.96- 77.0 80.8----
2024-07-18 04:00 am SW 13.0 19.0----29.96-0.03 77.0 80.8----
2024-07-18 03:54 am SW 15.0 22.9----29.96- 77.4 81.0----
2024-07-18 03:48 am SW 17.1 22.0----29.97- 77.9 81.0----
2024-07-18 03:42 am SW 17.1 22.9----29.97- 77.9 81.0----
2024-07-18 03:36 am SW 19.0 25.1----29.97- 78.1 81.0----
2024-07-18 03:30 am SW 19.0 27.0----29.97- 78.1 81.0----
2024-07-18 03:24 am SW 19.0 28.0----29.97- 78.1 81.0----
2024-07-18 03:18 am SW 15.9 21.0----29.96- 79.7 81.0----
2024-07-18 03:12 amSSW 13.0 17.1----29.96- 79.7 81.0----
2024-07-18 03:06 am SW 12.0 17.1----29.96- 79.7 81.0----
2024-07-18 03:00 amSSW 12.0 17.1----29.96-0.05 79.7 81.0----
2024-07-18 02:54 am SW 13.0 17.1----29.96- 79.9 81.0----
2024-07-18 02:48 am SW 9.9 15.9----29.96- 79.7 81.0----
2024-07-18 02:42 amSSW 11.1 15.9----29.97- 79.9 81.0----
2024-07-18 02:36 amSSW 12.0 19.0----29.97- 79.9 81.0----
2024-07-18 02:30 amSSW 14.0 17.1----29.97- 79.9 81.0----
2024-07-18 02:24 amSSW 12.0 17.1----29.97- 80.1 81.1----
2024-07-18 02:18 am SW 13.0 19.0----29.98- 80.1 81.1----
2024-07-18 02:12 am SW 14.0 19.0----29.98- 79.9 81.1----
2024-07-18 02:06 am SW 13.0 19.0----29.98- 79.9 81.1----
2024-07-18 02:00 am SW 13.0 18.1----29.98-0.04 79.9 81.1----
2024-07-18 01:54 am SW 13.0 19.0----29.98- 79.9 81.1----
2024-07-18 01:48 am SW 14.0 20.0----29.98- 79.9 81.1----
2024-07-18 01:42 am SW 13.0 18.1----29.98- 79.9 81.3----
2024-07-18 01:36 amSSW 12.0 17.1----29.98- 79.9 81.3----
2024-07-18 01:30 amSSW 12.0 17.1----29.98- 79.9 81.3----
2024-07-18 01:24 amSSW 12.0 19.0----29.98- 79.9 81.3----
2024-07-18 01:18 amSSW 12.0 17.1----29.98- 79.9 81.3----
2024-07-18 01:12 amSSW 12.0 17.1----29.99- 79.7 81.3----
2024-07-18 01:06 amSSW 12.0 17.1----29.99- 79.7 81.3----
2024-07-18 01:00 amSSW 9.9 15.9----29.99-0.04 79.7 81.3----
2024-07-18 12:54 amSSW 9.9 15.0----30.00- 79.7 81.3----